{"data":{"norad_id":59908,"epoch":"2026-09-22T14:42:01.934496Z","epoch_age_seconds":92906,"freshness":"FRESH","line1":"1 59908U 24101A   26265.61252239  .00008582  00000+0  11963-3 0  9995","line2":"2 59908  97.0007  31.0419 0001751  99.7590 260.3864 15.57147966131721","mean_motion":15.57147966,"eccentricity":0.0001751,"inclination_deg":97.0007,"raan_deg":31.0419,"arg_perigee_deg":99.759,"mean_anomaly_deg":260.3864,"bstar":0.00011963,"rev_number":13172,"period_min":92.476760811567,"perigee_km":394.7297991871,"apogee_km":397.10207252524,"semimajor_km":6774.0529358562,"source":"CELESTRAK","updated_at":"2026-09-23T09:00:19.771045Z"}}